Location: Il Ritiro
(43.4167°N, 13.1333°E)
Time: 16:52:04
(UTC+00:00)

USA 245 - Pass Details

Date: 05 July 2020
Orbit: 270 x 1010 km, 97.9° (Epoch: 09 August)

Event Time Altitude Azimuth Distance (km) Brightness Sun altitude
Exits shadow 19:30:14 - 126° (SE) 1,636 5.0 -6.6°
Reaches altitude 10° 19:30:31 10° 123° (ESE) 1,541 4.9 -6.6°
Maximum altitude 19:33:18 26° 65° (ENE) 1,008 4.5 -7.0°
Drops below altitude 10° 19:36:41 10° 8° (N) 1,889 6.5 -7.5°
Sets 19:39:21 0° 357° (N) 2,949 7.8 -7.8°
